Regional Weather Roundup
Issued by NWS

Home | Current Version | Previous Version | Text Only | Print | Product List | Glossary Off
Versions: 1 2 3 4 5 6 7 8 9 10 11 12 13 14 15 16 17 18 19 20 21 22 23 24 25 26 27 28 29 30 31 32 33 34 35 36 37 38 39 40 41 42 43 44 45 46 47 48 49 50

000
ASUS45 KBOI 281410
RWRID
WEATHER ROUNDUP FOR IDAHO
NATIONAL WEATHER SERVICE BOISE ID
800 AM MDT THU AUG 28 2014

NOTE: "FAIR" INDICATES FEW OR NO CLOUDS BELOW 12000 FEET
WITH NO SIGNIFICANT WEATHER AND/OR OBSTRUCTIONS TO VISIBILITY

IDZ012-014-281500-
SOUTHWEST IDAHO


CITY           SKY/WX    TMP DP  RH WIND       PRES   REMARKS
BOISE          CLEAR     63  44  50 CALM      30.08R
CALDWELL       CLEAR     57  39  51 SE5       30.08R
MOUNTAIN HOME  CLEAR     62  49  64 E14       30.09R
$$

IDZ016-017-281500-
SOUTHCENTRAL IDAHO


CITY           SKY/WX    TMP DP  RH WIND       PRES   REMARKS
BURLEY         SUNNY     57  49  74 CALM      30.17R
JEROME         SUNNY     58  49  72 NE7       30.17R
TWIN FALLS     SUNNY     64  47  53 S12       30.16R
$$

IDZ019>023-281500-
SOUTHEAST IDAHO


CITY           SKY/WX    TMP DP  RH WIND       PRES   REMARKS
IDAHO FALLS    SUNNY     52  49  89 CALM      30.23R
POCATELLO      MOSUNNY   55  51  86 N5        30.22R
REXBURG        SUNNY     50  45  83 NE5       30.24R
$$

IDZ006-010-011-018-031-032-281500-
CENTRAL IDAHO MOUNTAINS


CITY           SKY/WX    TMP DP  RH WIND       PRES   REMARKS
MCCALL         CLEAR     47  39  74 CALM      30.19S
HAILEY         SUNNY     52  43  71 NW9       30.27R
STANLEY          N/A     38  36  92 CALM      30.35R
SALMON         SUNNY     48  46  93 CALM      30.19S
CHALLIS        SUNNY     53  44  71 CALM      30.24R
$$

IDZ002-004-006-007-026-281500-
NORTHERN IDAHO


CITY           SKY/WX    TMP DP  RH WIND       PRES   REMARKS
LEWISTON       CLEAR     67  49  52 SE5       30.00R
LOWELL           N/A     54  51  90 VRB3      30.10R
COEUR D`ALENE  CLEAR     63  52  67 SW3       30.00R
MULLAN PASS    PTCLDY    55  44  66 VRB5      30.16R
$$


USA.gov is the U.S. government's official web portal to all federal, state and local government web resources and services.